QPF
0.08 0.09 0.08 0.09 0.09 0.09 0.12 0.14 0.12 0.11 0.10 0.09 0.08 0.11 0.11 0.10 0.15 0.21 0.21 0.15 0.10 0.09 0.06 0.05 0.07 0.07 0.08 0.08 0.07 0.07 0.07 0.07 0.06 0.05 0.04 0.04 0.03 0.03 0.03 0.03 0.04 0.04 0.04
0.11 0.11 0.11 0.10 0.09 0.09 0.10 0.11 0.12 0.11 0.11 0.11 0.09 0.09 0.09 0.07 0.09 0.17 0.21 0.19 0.13 0.08 0.07 0.05 0.06 0.07 0.08 0.09 0.07 0.06 0.06 0.07 0.10 0.10 0.08 0.06 0.05 0.04 0.04 0.04 0.04 0.04 0.05
0.12 0.13 0.13 0.13 0.11 0.09 0.09 0.08 0.09 0.11 0.10 0.11 0.11 0.09 0.09 0.10 0.10 0.12 0.13 0.15 0.14 0.10 0.07 0.05 0.05 0.07 0.08 0.09 0.09 0.08 0.07 0.06 0.07 0.09 0.09 0.10 0.09 0.08 0.07 0.06 0.05 0.05 0.05
0.09 0.10 0.13 0.13 0.11 0.10 0.10 0.10 0.11 0.11 0.11 0.13 0.13 0.12 0.11 0.10 0.09 0.08 0.09 0.10 0.14 0.15 0.11 0.08 0.06 0.08 0.10 0.10 0.10 0.10 0.09 0.07 0.07 0.07 0.09 0.10 0.11 0.10 0.09 0.07 0.06 0.06 0.05
0.06 0.08 0.10 0.11 0.11 0.10 0.10 0.09 0.11 0.11 0.12 0.13 0.11 0.11 0.10 0.09 0.10 0.07 0.08 0.09 0.11 0.15 0.17 0.13 0.11 0.11 0.11 0.10 0.09 0.09 0.09 0.09 0.09 0.08 0.08 0.10 0.11 0.10 0.09 0.07 0.07 0.06 0.05
0.05 0.07 0.08 0.08 0.08 0.09 0.10 0.10 0.09 0.09 0.11 0.11 0.09 0.09 0.09 0.07 0.08 0.08 0.08 0.09 0.10 0.12 0.14 0.16 0.18 0.18 0.16 0.13 0.09 0.08 0.08 0.09 0.09 0.08 0.07 0.08 0.08 0.08 0.08 0.08 0.07 0.07 0.07
0.05 0.06 0.07 0.09 0.08 0.08 0.08 0.08 0.08 0.08 0.10 0.12 0.10 0.09 0.08 0.07 0.08 0.09 0.09 0.10 0.09 0.11 0.13 0.15 0.16 0.16 0.15 0.12 0.09 0.08 0.07 0.08 0.08 0.08 0.08 0.09 0.09 0.09 0.09 0.10 0.09 0.08 0.08
0.06 0.06 0.08 0.09 0.09 0.09 0.09 0.08 0.09 0.08 0.09 0.11 0.12 0.11 0.09 0.08 0.07 0.08 0.08 0.08 0.08 0.08 0.09 0.09 0.12 0.13 0.13 0.13 0.11 0.09 0.07 0.07 0.08 0.08 0.07 0.08 0.09 0.09 0.10 0.10 0.09 0.08 0.08
0.05 0.05 0.05 0.06 0.08 0.08 0.08 0.07 0.08 0.08 0.09 0.11 0.12 0.13 0.13 0.11 0.11 0.09 0.08 0.07 0.07 0.07 0.06 0.05 0.07 0.09 0.10 0.10 0.10 0.09 0.08 0.06 0.07 0.06 0.05 0.04 0.05 0.06 0.07 0.08 0.08 0.07 0.06
0.04 0.03 0.03 0.04 0.05 0.07 0.08 0.06 0.06 0.07 0.07 0.09 0.11 0.11 0.11 0.12 0.11 0.11 0.11 0.09 0.07 0.07 0.06 0.05 0.06 0.08 0.10 0.11 0.10 0.09 0.08 0.06 0.05 0.05 0.06 0.04 0.03 0.03 0.04 0.05 0.06 0.05 0.05
0.05 0.04 0.05 0.05 0.05 0.06 0.06 0.06 0.06 0.07 0.07 0.07 0.08 0.09 0.09 0.10 0.10 0.10 0.10 0.12 0.09 0.08 0.06 0.06 0.07 0.07 0.07 0.08 0.08 0.07 0.06 0.05 0.05 0.05 0.05 0.04 0.03 0.03 0.03 0.03 0.04 0.04 0.04
0.08 0.07 0.05 0.05 0.05 0.05 0.04 0.04 0.05 0.06 0.07 0.08 0.08 0.09 0.08 0.08 0.08 0.09 0.09 0.10 0.09 0.08 0.07 0.05 0.05 0.05 0.05 0.05 0.05 0.04 0.04 0.04 0.03 0.03 0.03 0.02 0.03 0.02 0.02 0.03 0.04 0.05 0.05
0.08 0.07 0.06 0.06 0.06 0.05 0.04 0.05 0.06 0.07 0.07 0.07 0.07 0.07 0.08 0.10 0.11 0.11 0.11 0.11 0.09 0.07 0.06 0.04 0.04 0.04 0.04 0.04 0.03 0.03 0.03 0.02 0.02 0.02 0.02 0.02 0.02 0.01 0.01 0.03 0.05 0.06 0.06
0.08 0.07 0.06 0.06 0.05 0.05 0.05 0.07 0.07 0.07 0.06 0.06 0.06 0.07 0.08 0.08 0.10 0.11 0.12 0.13 0.11 0.07 0.05 0.03 0.04 0.04 0.04 0.03 0.03 0.03 0.02 0.02 0.02 0.02 0.02 0.02 0.02 0.01 0.01 0.03 0.05 0.05 0.05
0.06 0.05 0.04 0.04 0.04 0.05 0.05 0.05 0.06 0.05 0.05 0.05 0.06 0.07 0.07 0.07 0.08 0.10 0.11 0.12 0.12 0.09 0.06 0.04 0.04 0.03 0.03 0.03 0.03 0.03 0.03 0.02 0.02 0.02 0.02 0.02 0.02 0.01 0.01 0.02 0.05 0.05 0.05
0.06 0.05 0.04 0.04 0.03 0.04 0.04 0.05 0.05 0.04 0.04 0.05 0.05 0.06 0.06 0.06 0.08 0.09 0.10 0.10 0.10 0.10 0.09 0.07 0.05 0.03 0.03 0.03 0.03 0.04 0.03 0.02 0.02 0.01 0.01 0.01 0.01 0.01 0.02 0.02 0.05 0.07 0.05
0.04 0.03 0.03 0.03 0.03 0.03 0.04 0.05 0.04 0.02 0.02 0.03 0.05 0.06 0.07 0.07 0.09 0.11 0.09 0.08 0.08 0.09 0.09 0.07 0.05 0.03 0.03 0.03 0.02 0.03 0.02 0.03 0.02 0.01 0.01 0.01 0.01 0.00 0.01 0.01 0.02 0.04 0.05
0.03 0.03 0.02 0.02 0.02 0.03 0.03 0.03 0.03 0.01 0.01 0.02 0.04 0.06 0.06 0.07 0.07 0.07 0.07 0.06 0.07 0.08 0.08 0.07 0.05 0.04 0.03 0.03 0.03 0.03 0.02 0.02 0.02 0.01 0.01 0.01 0.01 0.00 0.00 0.00 0.01 0.02 0.03
0.04 0.03 0.02 0.02 0.02 0.03 0.03 0.03 0.03 0.02 0.01 0.02 0.03 0.05 0.05 0.05 0.06 0.06 0.06 0.06 0.07 0.07 0.07 0.06 0.06 0.06 0.04 0.03 0.03 0.03 0.02 0.02 0.01 0.01 0.01 0.01 0.01 0.01 0.00 0.00 0.01 0.01 0.03
0.04 0.03 0.02 0.02 0.02 0.02 0.02 0.02 0.03 0.03 0.02 0.02 0.02 0.03 0.03 0.04 0.06 0.06 0.06 0.07 0.06 0.07 0.07 0.06 0.06 0.07 0.05 0.03 0.03 0.04 0.03 0.02 0.01 0.01 0.01 0.01 0.01 0.01 0.01 0.01 0.01 0.01 0.01
0.03 0.03 0.03 0.03 0.02 0.02 0.02 0.02 0.02 0.04 0.04 0.03 0.03 0.03 0.02 0.02 0.02 0.03 0.03 0.05 0.05 0.06 0.05 0.05 0.05 0.05 0.05 0.04 0.03 0.03 0.03 0.03 0.02 0.01 0.01 0.01 0.01 0.01 0.01 0.02 0.02 0.01 0.01
0.03 0.03 0.03 0.03 0.03 0.02 0.01 0.02 0.02 0.05 0.07 0.05 0.04 0.03 0.02 0.02 0.02 0.02 0.02 0.02 0.03 0.04 0.05 0.05 0.04 0.04 0.04 0.04 0.04 0.04 0.03 0.03 0.03 0.02 0.01 0.01 0.01 0.01 0.01 0.02 0.02 0.01 0.01
0.03 0.03 0.03 0.03 0.03 0.02 0.01 0.01 0.03 0.04 0.04 0.04 0.03 0.04 0.03 0.03 0.02 0.02 0.02 0.01 0.02 0.02 0.02 0.03 0.04 0.04 0.04 0.04 0.05 0.05 0.05 0.05 0.05 0.03 0.02 0.01 0.01 0.01 0.01 0.02 0.03 0.02 0.02
0.04 0.04 0.03 0.04 0.03 0.03 0.02 0.02 0.03 0.02 0.03 0.02 0.02 0.03 0.03 0.04 0.02 0.02 0.02 0.02 0.03 0.02 0.01 0.01 0.03 0.03 0.03 0.03 0.04 0.04 0.06 0.05 0.04 0.03 0.02 0.02 0.02 0.02 0.02 0.02 0.04 0.04 0.02
0.04 0.05 0.04 0.05 0.05 0.04 0.02 0.01 0.02 0.03 0.04 0.04 0.03 0.02 0.03 0.04 0.02 0.02 0.02 0.03 0.03 0.04 0.02 0.01 0.01 0.01 0.01 0.01 0.01 0.03 0.05 0.04 0.04 0.04 0.03 0.03 0.02 0.02 0.02 0.03 0.04 0.05 0.03
0.03 0.04 0.04 0.05 0.04 0.04 0.03 0.02 0.01 0.02 0.04 0.05 0.05 0.04 0.03 0.03 0.02 0.02 0.02 0.03 0.03 0.03 0.02 0.01 0.01 0.01 0.00 0.01 0.00 0.02 0.04 0.05 0.04 0.03 0.03 0.03 0.02 0.02 0.03 0.03 0.04 0.04 0.02
MSLP
1015.41 1015.49 1015.55 1015.64 1015.74 1015.86 1015.97 1016.05 1016.07 1016.03 1015.92 1015.77 1015.60 1015.44 1015.32 1015.25 1015.24 1015.30 1015.40 1015.54 1015.73 1015.96 1016.24 1016.57 1016.95 1017.37 1017.81 1018.24 1018.63 1018.96 1019.22 1019.42 1019.56 1019.68 1019.81 1019.95 1020.11 1020.28 1020.43 1020.54 1020.60 1020.60 1020.55
1015.37 1015.46 1015.55 1015.64 1015.73 1015.82 1015.88 1015.90 1015.88 1015.80 1015.69 1015.54 1015.40 1015.28 1015.19 1015.13 1015.11 1015.12 1015.16 1015.23 1015.34 1015.52 1015.76 1016.08 1016.48 1016.93 1017.41 1017.86 1018.27 1018.61 1018.87 1019.06 1019.21 1019.34 1019.50 1019.69 1019.90 1020.13 1020.34 1020.50 1020.59 1020.62 1020.59
1015.35 1015.48 1015.58 1015.69 1015.78 1015.85 1015.88 1015.87 1015.81 1015.71 1015.59 1015.47 1015.36 1015.27 1015.20 1015.14 1015.09 1015.04 1015.00 1014.98 1015.00 1015.09 1015.28 1015.57 1015.96 1016.43 1016.93 1017.41 1017.84 1018.20 1018.47 1018.68 1018.84 1019.01 1019.20 1019.45 1019.72 1020.02 1020.30 1020.52 1020.66 1020.73 1020.74
1015.30 1015.45 1015.60 1015.73 1015.84 1015.91 1015.93 1015.90 1015.82 1015.72 1015.61 1015.50 1015.42 1015.36 1015.31 1015.24 1015.15 1015.03 1014.89 1014.75 1014.65 1014.64 1014.74 1014.98 1015.34 1015.81 1016.32 1016.84 1017.31 1017.71 1018.02 1018.26 1018.47 1018.68 1018.93 1019.23 1019.57 1019.93 1020.28 1020.57 1020.78 1020.91 1020.98
1015.15 1015.33 1015.52 1015.70 1015.85 1015.94 1015.97 1015.94 1015.87 1015.77 1015.67 1015.60 1015.55 1015.52 1015.47 1015.38 1015.24 1015.03 1014.77 1014.49 1014.25 1014.10 1014.10 1014.25 1014.57 1015.02 1015.56 1016.12 1016.65 1017.11 1017.49 1017.80 1018.08 1018.35 1018.66 1019.02 1019.42 1019.85 1020.26 1020.63 1020.91 1021.11 1021.24
1014.88 1015.10 1015.34 1015.58 1015.78 1015.91 1015.97 1015.96 1015.90 1015.82 1015.76 1015.71 1015.70 1015.68 1015.64 1015.52 1015.31 1015.00 1014.60 1014.17 1013.77 1013.46 1013.32 1013.37 1013.63 1014.07 1014.63 1015.24 1015.86 1016.41 1016.89 1017.30 1017.66 1018.01 1018.39 1018.81 1019.27 1019.76 1020.23 1020.65 1021.00 1021.27 1021.47
1014.50 1014.76 1015.06 1015.36 1015.62 1015.80 1015.90 1015.93 1015.90 1015.86 1015.82 1015.82 1015.83 1015.83 1015.78 1015.63 1015.35 1014.92 1014.38 1013.78 1013.20 1012.73 1012.44 1012.38 1012.57 1012.99 1013.57 1014.25 1014.96 1015.62 1016.23 1016.75 1017.22 1017.66 1018.11 1018.58 1019.09 1019.62 1020.14 1020.62 1021.03 1021.37 1021.64
1014.10 1014.40 1014.75 1015.11 1015.42 1015.66 1015.80 1015.86 1015.87 1015.86 1015.86 1015.90 1015.94 1015.95 1015.90 1015.71 1015.35 1014.82 1014.13 1013.36 1012.61 1011.97 1011.52 1011.35 1011.47 1011.86 1012.47 1013.22 1014.02 1014.82 1015.54 1016.19 1016.76 1017.29 1017.80 1018.32 1018.86 1019.42 1019.98 1020.50 1020.98 1021.38 1021.72
1013.76 1014.10 1014.49 1014.88 1015.24 1015.51 1015.68 1015.78 1015.82 1015.85 1015.89 1015.95 1016.03 1016.06 1015.99 1015.77 1015.35 1014.71 1013.90 1012.98 1012.07 1011.27 1010.69 1010.40 1010.45 1010.82 1011.45 1012.25 1013.14 1014.04 1014.88 1015.63 1016.30 1016.90 1017.46 1018.01 1018.57 1019.15 1019.73 1020.29 1020.82 1021.29 1021.70
1013.59 1013.94 1014.35 1014.76 1015.12 1015.40 1015.60 1015.70 1015.77 1015.83 1015.90 1016.00 1016.10 1016.14 1016.07 1015.82 1015.36 1014.64 1013.74 1012.71 1011.68 1010.76 1010.06 1009.68 1009.66 1009.99 1010.62 1011.45 1012.40 1013.36 1014.28 1015.11 1015.84 1016.48 1017.06 1017.64 1018.21 1018.79 1019.40 1020.00 1020.57 1021.11 1021.59
1013.63 1013.98 1014.38 1014.77 1015.11 1015.38 1015.55 1015.66 1015.73 1015.80 1015.90 1016.02 1016.14 1016.20 1016.14 1015.88 1015.39 1014.65 1013.69 1012.60 1011.49 1010.49 1009.72 1009.27 1009.18 1009.47 1010.06 1010.88 1011.84 1012.82 1013.76 1014.62 1015.37 1016.02 1016.62 1017.19 1017.77 1018.36 1018.98 1019.62 1020.25 1020.85 1021.41
1013.88 1014.20 1014.55 1014.90 1015.19 1015.41 1015.55 1015.64 1015.70 1015.77 1015.87 1016.00 1016.14 1016.22 1016.17 1015.94 1015.45 1014.71 1013.75 1012.66 1011.54 1010.51 1009.70 1009.20 1009.06 1009.28 1009.81 1010.58 1011.47 1012.42 1013.32 1014.15 1014.88 1015.53 1016.12 1016.68 1017.26 1017.87 1018.52 1019.19 1019.87 1020.53 1021.15
1014.28 1014.54 1014.84 1015.11 1015.33 1015.49 1015.58 1015.62 1015.65 1015.70 1015.80 1015.94 1016.08 1016.18 1016.15 1015.94 1015.50 1014.81 1013.91 1012.87 1011.79 1010.79 1009.98 1009.46 1009.26 1009.40 1009.84 1010.49 1011.28 1012.12 1012.94 1013.70 1014.38 1014.98 1015.55 1016.11 1016.70 1017.33 1018.01 1018.72 1019.46 1020.18 1020.85
1014.74 1014.94 1015.16 1015.35 1015.49 1015.57 1015.60 1015.59 1015.58 1015.61 1015.69 1015.82 1015.96 1016.06 1016.06 1015.89 1015.52 1014.91 1014.10 1013.16 1012.18 1011.24 1010.48 1009.94 1009.70 1009.75 1010.06 1010.57 1011.20 1011.90 1012.59 1013.24 1013.84 1014.40 1014.94 1015.51 1016.12 1016.78 1017.50 1018.26 1019.04 1019.79 1020.51
1015.17 1015.31 1015.45 1015.56 1015.63 1015.64 1015.61 1015.56 1015.50 1015.50 1015.54 1015.64 1015.76 1015.86 1015.88 1015.76 1015.47 1014.97 1014.29 1013.48 1012.62 1011.79 1011.08 1010.56 1010.27 1010.22 1010.38 1010.72 1011.18 1011.70 1012.24 1012.77 1013.29 1013.81 1014.34 1014.92 1015.56 1016.26 1017.02 1017.82 1018.63 1019.42 1020.15
1015.48 1015.56 1015.64 1015.70 1015.71 1015.68 1015.60 1015.51 1015.43 1015.38 1015.39 1015.45 1015.54 1015.62 1015.64 1015.56 1015.35 1014.96 1014.42 1013.76 1013.04 1012.34 1011.70 1011.20 1010.86 1010.71 1010.73 1010.89 1011.16 1011.50 1011.89 1012.31 1012.76 1013.25 1013.79 1014.40 1015.08 1015.83 1016.64 1017.46 1018.28 1019.08 1019.80
1015.63 1015.68 1015.72 1015.75 1015.74 1015.69 1015.60 1015.49 1015.38 1015.30 1015.26 1015.27 1015.31 1015.36 1015.38 1015.33 1015.17 1014.89 1014.48 1013.98 1013.41 1012.82 1012.26 1011.78 1011.41 1011.17 1011.05 1011.04 1011.14 1011.33 1011.58 1011.91 1012.32 1012.80 1013.36 1014.02 1014.74 1015.54 1016.37 1017.20 1018.02 1018.79 1019.49
1015.62 1015.66 1015.70 1015.73 1015.72 1015.68 1015.60 1015.49 1015.37 1015.26 1015.18 1015.14 1015.12 1015.13 1015.13 1015.09 1014.98 1014.79 1014.50 1014.13 1013.69 1013.22 1012.74 1012.28 1011.88 1011.56 1011.33 1011.19 1011.14 1011.20 1011.35 1011.62 1012.00 1012.49 1013.10 1013.80 1014.57 1015.39 1016.23 1017.06 1017.85 1018.57 1019.22
1015.48 1015.53 1015.59 1015.65 1015.68 1015.68 1015.62 1015.53 1015.41 1015.28 1015.16 1015.06 1015.00 1014.96 1014.92 1014.88 1014.82 1014.69 1014.50 1014.24 1013.92 1013.54 1013.13 1012.71 1012.29 1011.92 1011.59 1011.35 1011.20 1011.16 1011.25 1011.48 1011.86 1012.37 1013.00 1013.74 1014.55 1015.39 1016.22 1017.02 1017.75 1018.41 1019.00
1015.26 1015.33 1015.43 1015.53 1015.61 1015.65 1015.64 1015.58 1015.47 1015.33 1015.18 1015.05 1014.93 1014.85 1014.78 1014.74 1014.69 1014.62 1014.50 1014.34 1014.11 1013.82 1013.47 1013.08 1012.66 1012.25 1011.87 1011.56 1011.34 1011.24 1011.29 1011.50 1011.88 1012.42 1013.08 1013.84 1014.65 1015.48 1016.28 1017.02 1017.70 1018.29 1018.80
1015.00 1015.10 1015.24 1015.39 1015.52 1015.60 1015.64 1015.60 1015.51 1015.38 1015.21 1015.05 1014.90 1014.78 1014.70 1014.64 1014.61 1014.57 1014.52 1014.42 1014.27 1014.05 1013.76 1013.40 1013.00 1012.58 1012.17 1011.82 1011.56 1011.44 1011.46 1011.67 1012.05 1012.58 1013.25 1014.00 1014.80 1015.59 1016.34 1017.02 1017.62 1018.14 1018.60
1014.75 1014.88 1015.04 1015.22 1015.39 1015.52 1015.58 1015.58 1015.50 1015.38 1015.21 1015.03 1014.86 1014.73 1014.63 1014.57 1014.54 1014.54 1014.52 1014.48 1014.38 1014.22 1013.98 1013.66 1013.28 1012.88 1012.47 1012.12 1011.85 1011.71 1011.73 1011.92 1012.29 1012.81 1013.44 1014.16 1014.90 1015.64 1016.32 1016.94 1017.47 1017.93 1018.34
1014.54 1014.68 1014.86 1015.05 1015.24 1015.38 1015.46 1015.48 1015.43 1015.31 1015.15 1014.97 1014.80 1014.65 1014.55 1014.49 1014.46 1014.47 1014.48 1014.46 1014.41 1014.29 1014.09 1013.81 1013.48 1013.10 1012.72 1012.38 1012.12 1011.99 1012.00 1012.17 1012.51 1012.99 1013.57 1014.22 1014.90 1015.55 1016.16 1016.71 1017.18 1017.60 1017.98
1014.40 1014.53 1014.70 1014.88 1015.06 1015.20 1015.30 1015.32 1015.28 1015.18 1015.03 1014.86 1014.69 1014.54 1014.42 1014.35 1014.32 1014.32 1014.32 1014.32 1014.28 1014.18 1014.02 1013.79 1013.50 1013.17 1012.84 1012.54 1012.31 1012.19 1012.20 1012.35 1012.64 1013.06 1013.57 1014.14 1014.72 1015.29 1015.82 1016.30 1016.74 1017.12 1017.48
1014.34 1014.44 1014.58 1014.74 1014.90 1015.02 1015.11 1015.14 1015.10 1015.01 1014.87 1014.71 1014.54 1014.38 1014.25 1014.15 1014.08 1014.04 1014.02 1013.99 1013.94 1013.86 1013.72 1013.53 1013.29 1013.02 1012.76 1012.52 1012.34 1012.25 1012.26 1012.40 1012.64 1012.99 1013.42 1013.89 1014.38 1014.86 1015.32 1015.75 1016.14 1016.52 1016.88
1014.34 1014.41 1014.52 1014.64 1014.77 1014.87 1014.94 1014.96 1014.93 1014.84 1014.72 1014.56 1014.38 1014.20 1014.02 1013.87 1013.74 1013.64 1013.55 1013.48 1013.39 1013.29 1013.16 1013.01 1012.83 1012.64 1012.46 1012.30 1012.19 1012.14 1012.18 1012.30 1012.51 1012.79 1013.14 1013.52 1013.92 1014.32 1014.72 1015.10 1015.46 1015.82 1016.18
Thickness
5721 5721 5719 5717 5716 5714 5713 5713 5712 5712 5711 5711 5710 5710 5709 5709 5710 5709 5708 5706 5706 5706 5706 5706 5707 5707 5706 5705 5704 5703 5703 5702 5702 5701 5701 5700 5699 5699 5698 5698 5697 5697 5696
5715 5714 5713 5712 5710 5709 5708 5707 5707 5707 5706 5706 5705 5705 5704 5705 5705 5704 5704 5702 5702 5702 5702 5702 5703 5703 5702 5701 5701 5700 5700 5699 5699 5699 5698 5698 5697 5696 5695 5695 5694 5694 5693
5710 5708 5707 5706 5704 5703 5703 5702 5701 5701 5701 5701 5700 5700 5700 5700 5700 5699 5698 5699 5698 5698 5697 5697 5698 5698 5698 5698 5698 5697 5696 5696 5695 5695 5695 5694 5694 5693 5693 5692 5691 5691 5690
5704 5703 5701 5699 5698 5697 5696 5695 5695 5694 5693 5693 5694 5694 5694 5694 5694 5694 5693 5694 5694 5693 5692 5692 5693 5693 5693 5693 5693 5692 5692 5692 5692 5691 5691 5691 5690 5690 5689 5689 5688 5688 5687
5699 5697 5695 5694 5693 5692 5690 5689 5688 5687 5685 5686 5687 5688 5688 5688 5689 5689 5689 5689 5688 5687 5687 5688 5688 5688 5687 5687 5687 5687 5687 5687 5687 5687 5686 5686 5686 5686 5686 5686 5685 5684 5683
5692 5691 5690 5688 5687 5685 5683 5682 5680 5680 5679 5679 5680 5681 5681 5682 5683 5683 5683 5682 5682 5682 5682 5682 5682 5681 5681 5681 5682 5681 5682 5682 5682 5682 5682 5681 5681 5681 5681 5681 5680 5680 5679
5686 5684 5682 5681 5680 5678 5676 5675 5673 5672 5672 5672 5670 5670 5673 5675 5676 5676 5675 5675 5675 5676 5676 5676 5675 5674 5675 5675 5675 5675 5676 5677 5678 5677 5677 5676 5676 5676 5676 5676 5676 5675 5675
5679 5678 5675 5674 5672 5671 5669 5668 5667 5665 5665 5665 5662 5660 5659 5662 5666 5669 5667 5667 5667 5668 5669 5669 5669 5668 5668 5668 5668 5668 5669 5670 5671 5671 5671 5671 5671 5671 5671 5671 5671 5671 5671
5673 5671 5669 5667 5665 5664 5662 5661 5660 5658 5657 5658 5659 5654 5650 5650 5654 5658 5659 5659 5659 5660 5661 5661 5662 5661 5661 5662 5661 5660 5661 5662 5663 5664 5664 5665 5665 5666 5666 5666 5665 5666 5666
5667 5665 5662 5661 5659 5657 5655 5655 5654 5653 5652 5651 5652 5652 5651 5650 5645 5645 5649 5650 5650 5651 5653 5654 5654 5654 5654 5654 5654 5653 5654 5655 5656 5656 5657 5658 5660 5661 5661 5661 5661 5661 5662
5660 5658 5656 5654 5652 5650 5648 5648 5647 5647 5646 5645 5645 5645 5645 5645 5644 5639 5638 5639 5641 5643 5645 5646 5647 5646 5646 5647 5647 5646 5647 5648 5648 5649 5650 5651 5653 5654 5655 5655 5656 5656 5657
5653 5651 5649 5647 5644 5643 5643 5642 5641 5640 5640 5640 5639 5639 5638 5637 5637 5635 5633 5633 5633 5635 5637 5639 5639 5639 5639 5639 5639 5639 5640 5641 5641 5642 5643 5645 5646 5647 5648 5649 5650 5650 5651
5644 5643 5641 5639 5638 5637 5637 5636 5635 5634 5634 5633 5633 5633 5633 5633 5633 5632 5629 5628 5628 5628 5629 5631 5632 5633 5633 5632 5632 5633 5633 5634 5634 5635 5636 5637 5638 5640 5641 5642 5643 5644 5644
5638 5636 5634 5633 5632 5631 5631 5630 5629 5628 5628 5628 5628 5628 5627 5628 5628 5627 5625 5623 5620 5621 5622 5623 5625 5626 5627 5626 5626 5626 5626 5627 5628 5629 5630 5631 5631 5633 5634 5635 5636 5637 5638
5632 5630 5629 5628 5626 5625 5624 5623 5622 5622 5622 5621 5621 5622 5621 5622 5623 5623 5623 5621 5617 5614 5614 5617 5618 5620 5621 5621 5620 5620 5621 5621 5622 5623 5623 5624 5625 5626 5628 5629 5630 5631 5632
5625 5624 5622 5621 5619 5619 5618 5617 5616 5616 5615 5614 5615 5616 5616 5617 5617 5618 5618 5617 5616 5613 5611 5614 5614 5615 5615 5615 5615 5615 5616 5617 5617 5617 5617 5618 5619 5620 5622 5623 5624 5625 5626
5620 5618 5617 5615 5614 5613 5612 5611 5610 5610 5609 5608 5609 5609 5610 5610 5610 5611 5612 5611 5611 5610 5607 5609 5610 5610 5610 5610 5610 5611 5612 5612 5612 5613 5613 5613 5614 5615 5616 5617 5618 5620 5621
5614 5612 5611 5609 5608 5607 5607 5605 5604 5604 5603 5602 5602 5602 5603 5604 5603 5604 5605 5605 5606 5606 5604 5602 5603 5604 5604 5605 5606 5606 5608 5609 5610 5610 5609 5609 5610 5611 5611 5612 5613 5614 5615
5608 5607 5605 5603 5602 5601 5600 5599 5598 5597 5597 5596 5596 5596 5596 5597 5596 5597 5598 5599 5600 5601 5601 5599 5598 5599 5599 5600 5601 5603 5605 5606 5608 5607 5606 5606 5606 5607 5607 5608 5609 5610 5610
5603 5601 5600 5598 5597 5595 5594 5592 5591 5590 5590 5590 5590 5590 5590 5590 5591 5591 5592 5593 5594 5594 5595 5594 5594 5594 5595 5596 5597 5597 5599 5601 5603 5604 5603 5603 5603 5604 5604 5604 5605 5606 5606
5599 5597 5595 5593 5591 5589 5586 5584 5584 5584 5584 5584 5584 5585 5585 5586 5586 5586 5587 5587 5588 5588 5589 5589 5589 5589 5589 5590 5591 5593 5594 5596 5598 5601 5600 5601 5601 5600 5601 5601 5601 5602 5602
5594 5592 5590 5588 5586 5583 5579 5577 5577 5578 5578 5578 5579 5581 5582 5582 5583 5582 5582 5582 5583 5583 5584 5584 5585 5585 5586 5587 5588 5590 5590 5591 5591 5597 5598 5598 5600 5599 5600 5600 5600 5600 5600
5590 5588 5586 5584 5581 5577 5574 5573 5573 5573 5574 5575 5576 5577 5579 5581 5580 5580 5580 5580 5580 5581 5581 5581 5582 5583 5584 5585 5586 5586 5587 5588 5589 5594 5594 5594 5597 5598 5599 5600 5599 5599 5598
5586 5584 5582 5580 5578 5574 5572 5570 5570 5571 5572 5573 5574 5575 5575 5576 5576 5576 5577 5578 5578 5579 5580 5580 5582 5582 5583 5584 5584 5584 5585 5586 5589 5591 5592 5589 5593 5595 5598 5598 5598 5597 5596
5584 5582 5580 5578 5576 5573 5570 5569 5567 5569 5571 5572 5573 5574 5574 5574 5572 5572 5573 5574 5575 5576 5578 5579 5579 5580 5581 5581 5581 5580 5582 5582 5583 5586 5590 5588 5590 5592 5594 5595 5595 5594 5593
5584 5581 5579 5577 5576 5573 5570 5569 5567 5568 5570 5570 5571 5572 5571 5571 5569 5569 5570 5572 5572 5574 5575 5576 5576 5578 5579 5581 5580 5579 5580 5580 5581 5582 5587 5587 5587 5588 5588 5592 5593 5591 5589